Quillayute, WA
on Wednesday, December 26, 2012

Wednesday
Previous Day Next Day
Daily Summary
 ActualAverageRecord
Temperature
Mean Temperature °F 40°F  
Max Temperature 48°F 46°F 57°F (1991)
Min Temperature 39°F 35°F 23°F (1978)
Degree Days
Heating Degree Days 21 25  
Month to date heating degree days 642  
Since 1 July heating degree days 2356  
Cooling Degree Days 0 0  
Month to date cooling degree days 0  
Year to date cooling degree days 19  
Moisture
Dew Point 42°F   
Average Humidity 98    
Maximum Humidity 100    
Minimum Humidity 87    
Precipitation
Precipitation 0.85 in 0.41 in 2.86 in (1975)
Month to date precipitation 10.98  
Year to date precipitation 97.53  
Wind
Wind Speed 6 mph   
Max Wind Speed 16 mph   
Max Gust Speed 24 mph   
Visibility 2 miles   
Events Fog , Rain   

Key: T is trace of precipitation, MM is missing value
Source: NWS Daily Summary
Time(PST)TemperatureDew PointHumidity Pressure Visibility Wind DirectionWind SpeedGust SpeedPrecipitationEvents Conditions
12:31 AM 42.8°F 42.8°F 100% 29.62 in 4.0 miles SSE 6.9 mph - 0.04 in Rain Light Rain
12:53 AM 43.0°F 42.1°F 97% 29.62 in 4.0 miles Variable 4.6 mph - 0.04 in Rain Light Rain
1:53 AM 43.0°F 42.1°F 97% 29.63 in 4.0 miles SE 4.6 mph - 0.00 in Rain Light Rain
2:22 AM 42.8°F 42.8°F 100% 29.63 in 2.0 miles SE 5.8 mph - 0.03 in Rain Light Rain
2:34 AM 42.8°F 42.8°F 100% 29.63 in 4.0 miles Variable 3.5 mph - 0.03 in Rain Light Rain
2:53 AM 43.0°F 42.1°F 97% 29.64 in 3.0 miles Calm Calm - 0.04 in Rain Light Rain
3:53 AM 43.0°F 42.1°F 97% 29.64 in 4.0 miles SE 4.6 mph - 0.01 in Rain Light Rain
4:12 AM 42.8°F 42.8°F 100% 29.64 in 3.0 miles SE 6.9 mph - 0.00 in Rain Light Rain
4:26 AM 42.8°F 42.8°F 100% 29.64 in 2.0 miles SSE 3.5 mph - 0.01 in Rain Light Rain
4:31 AM 42.8°F 42.8°F 100% 29.64 in 1.8 miles SSE 3.5 mph - 0.02 in Rain Light Rain
4:42 AM 42.8°F 42.8°F 100% 29.64 in 2.0 miles SSE 6.9 mph - 0.03 in Rain Light Rain
4:48 AM 42.8°F 42.8°F 100% 29.64 in 3.0 miles Calm Calm - 0.03 in Rain Light Rain
4:53 AM 43.0°F 42.1°F 97% 29.64 in 4.0 miles Variable 4.6 mph - 0.03 in   Overcast
5:00 AM 42.8°F 42.8°F 100% 29.64 in 4.0 miles SSE 5.8 mph - 0.00 in Rain Light Rain
5:12 AM 42.8°F 42.8°F 100% 29.64 in 2.5 miles Variable 4.6 mph - 0.00 in Rain Light Rain
5:22 AM 42.8°F 42.8°F 100% 29.64 in 2.0 miles SSE 5.8 mph - 0.01 in   Overcast
5:36 AM 42.8°F 42.8°F 100% 29.64 in 1.2 miles Variable 5.8 mph - 0.01 in Rain Light Rain
5:53 AM 43.0°F 42.1°F 97% 29.65 in 1.0 miles SE 5.8 mph - 0.03 in Rain Light Rain
6:12 AM 42.8°F 42.8°F 100% 29.65 in 1.2 miles Calm Calm - 0.02 in Rain Light Rain
6:33 AM 42.8°F 42.8°F 100% 29.65 in 2.0 miles SE 6.9 mph - 0.04 in Rain Light Rain
6:40 AM 42.8°F 42.8°F 100% 29.65 in 3.0 miles SSE 9.2 mph - 0.04 in Rain Light Rain
6:51 AM 42.8°F 42.8°F 100% 29.66 in 1.8 miles SE 4.6 mph - 0.04 in Rain Light Rain
6:53 AM 43.0°F 42.1°F 97% 29.66 in 1.5 miles SE 5.8 mph - 0.04 in Rain Light Rain
7:03 AM 42.8°F 42.8°F 100% 29.66 in 3.0 miles SE 5.8 mph - 0.01 in Rain Light Rain
7:19 AM 42.8°F 42.8°F 100% 29.66 in 6.0 miles SSE 4.6 mph - 0.01 in   Overcast
7:23 AM 42.8°F 42.8°F 100% 29.66 in 2.0 miles Variable 3.5 mph - 0.01 in Rain Light Rain
7:27 AM 42.8°F 42.8°F 100% 29.66 in 1.2 miles SSE 8.1 mph - 0.02 in Rain Rain
7:32 AM 42.8°F 42.8°F 100% 29.66 in 1.2 miles SSE 6.9 mph - 0.03 in Rain Light Rain
7:35 AM 42.8°F 42.8°F 100% 29.66 in 1.5 miles SSE 6.9 mph - 0.04 in Rain Light Rain
7:44 AM 42.8°F 42.8°F 100% 29.66 in 2.5 miles SSE 6.9 mph - 0.04 in Rain Light Rain
7:51 AM 42.8°F 42.8°F 100% 29.66 in 3.0 miles SSE 5.8 mph - 0.04 in Rain Light Rain
7:53 AM 43.0°F 42.1°F 97% 29.67 in 3.0 miles SSE 5.8 mph - 0.04 in Rain Light Rain
8:01 AM 42.8°F 42.8°F 100% 29.66 in 2.5 miles SSE 5.8 mph - 0.01 in Rain Light Rain
8:09 AM 42.8°F 42.8°F 100% 29.66 in 3.0 miles SE 8.1 mph - 0.01 in Rain Light Rain
8:19 AM 42.8°F 42.8°F 100% 29.66 in 1.8 miles SSE 8.1 mph - 0.02 in Rain Light Rain
8:26 AM 42.8°F 42.8°F 100% 29.66 in 1.2 miles SE 5.8 mph - 0.02 in Rain Light Rain
8:39 AM 42.8°F 42.8°F 100% 29.66 in 1.5 miles SSE 8.1 mph - 0.04 in Rain Light Rain
8:46 AM 42.8°F 42.8°F 100% 29.67 in 1.2 miles SE 8.1 mph - 0.04 in Rain Light Rain
8:53 AM 43.0°F 42.1°F 97% 29.68 in 1.2 miles SSE 6.9 mph - 0.05 in Rain Light Rain
8:57 AM 42.8°F 42.8°F 100% 29.67 in 2.0 miles SE 6.9 mph - 0.00 in Rain Light Rain
9:02 AM 42.8°F 42.8°F 100% 29.67 in 4.0 miles SSE 6.9 mph - 0.00 in Rain Light Rain
9:12 AM 42.8°F 42.8°F 100% 29.68 in 2.5 miles SSE 8.1 mph - 0.00 in Rain Light Rain
9:16 AM 42.8°F 42.8°F 100% 29.67 in 1.8 miles SSE 6.9 mph - 0.01 in Rain Light Rain
9:36 AM 42.8°F 42.8°F 100% 29.68 in 1.2 miles SE 6.9 mph - 0.02 in Rain Light Rain
9:44 AM 42.8°F 42.8°F 100% 29.68 in 1.8 miles SE 8.1 mph - 0.03 in Rain Light Rain
9:49 AM 42.8°F 42.8°F 100% 29.68 in 1.2 miles SSE 9.2 mph - 0.04 in Rain Rain
9:53 AM 43.0°F 42.1°F 97% 29.68 in 1.2 miles SE 10.4 mph - 0.05 in Rain Light Rain
10:01 AM 42.8°F 42.8°F 100% 29.68 in 1.2 miles SE 9.2 mph - 0.01 in Rain Light Rain
10:08 AM 42.8°F 42.8°F 100% 29.68 in 1.5 miles SE 9.2 mph - 0.02 in Rain Light Rain
10:18 AM 42.8°F 42.8°F 100% 29.68 in 1.0 miles SSE 8.1 mph - 0.04 in Rain Light Rain
10:53 AM 43.0°F 42.1°F 97% 29.68 in 1.0 miles SSE 12.7 mph 19.6 mph 0.13 in Rain Rain
11:05 AM 42.8°F 42.8°F 100% 29.66 in 1.0 miles SE 15.0 mph 19.6 mph 0.05 in Rain Rain
11:13 AM 42.8°F 42.8°F 100% 29.66 in 1.2 miles SE 11.5 mph 19.6 mph 0.08 in Rain Rain
11:36 AM 42.8°F 42.8°F 100% 29.65 in 1.2 miles SE 9.2 mph 21.9 mph 0.15 in Rain Light Rain
11:53 AM 44.1°F 43.0°F 96% 29.65 in 1.0 miles SE 8.1 mph - 0.21 in Rain Rain
12:07 PM 44.6°F 44.6°F 100% 29.65 in 0.8 miles SE 6.9 mph - 0.03 in Rain Light Rain
12:30 PM 44.6°F 44.6°F 100% 29.64 in 1.0 miles South 9.2 mph - 0.08 in Rain Light Rain
12:34 PM 44.6°F 44.6°F 100% 29.63 in 0.5 miles South 8.1 mph - 0.09 in Fog , Rain Rain
12:43 PM 44.6°F 44.6°F 100% 29.63 in 1.5 miles Variable 5.8 mph - 0.11 in Rain Light Rain
12:48 PM 46.4°F 44.6°F 93% 29.63 in 0.8 miles SSW 9.2 mph - 0.11 in Rain Light Rain
12:53 PM 45.0°F 45.0°F 100% 29.64 in 0.5 miles South 9.2 mph - 0.12 in Fog , Rain Light Rain
1:06 PM 46.4°F 44.6°F 93% 29.63 in 1.5 miles SSW 6.9 mph - 0.01 in Rain Light Rain
1:10 PM 46.4°F 44.6°F 93% 29.63 in 3.0 miles SSW 8.1 mph - 0.01 in Rain Light Rain
1:24 PM 46.4°F 44.6°F 93% 29.63 in 2.5 miles SSW 9.2 mph - 0.01 in   Overcast
1:26 PM 46.4°F 44.6°F 93% 29.63 in 1.2 miles SSW 8.1 mph - 0.01 in Rain Light Rain
1:36 PM 46.4°F 44.6°F 93% 29.62 in 1.5 miles South 6.9 mph - 0.01 in Rain Light Rain
1:40 PM 46.4°F 44.6°F 93% 29.62 in 2.0 miles South 8.1 mph - 0.01 in Rain Light Rain
1:46 PM 46.4°F 44.6°F 93% 29.62 in 1.8 miles South 8.1 mph - 0.01 in Rain Light Rain
1:49 PM 46.4°F 44.6°F 93% 29.62 in 0.8 miles South 6.9 mph - 0.02 in Rain Light Rain
1:53 PM 46.0°F 45.0°F 96% 29.62 in 0.5 miles SSE 10.4 mph - 0.04 in Fog , Rain Rain
2:00 PM 46.4°F 44.6°F 93% 29.61 in 0.8 miles SSW 8.1 mph 18.4 mph 0.01 in Rain Light Rain
2:02 PM 46.4°F 44.6°F 93% 29.61 in 1.5 miles SSW 8.1 mph 18.4 mph 0.01 in Rain Light Rain
2:05 PM 46.4°F 44.6°F 93% 29.61 in 3.0 miles SSW 6.9 mph - 0.01 in   Overcast
2:53 PM 46.9°F 46.0°F 97% 29.60 in 2.5 miles SW 9.2 mph - 0.01 in Rain Light Rain
3:05 PM 46.4°F 46.4°F 100% 29.60 in 3.0 miles SW 12.7 mph - 0.00 in Rain Light Rain
3:53 PM 43.0°F 41.0°F 93% 29.68 in 3.0 miles NW 11.5 mph - 0.00 in Rain Light Rain
3:56 PM 42.8°F 41.0°F 93% 29.67 in 2.5 miles NW 12.7 mph - 0.00 in Rain Light Rain
4:09 PM 42.8°F 41.0°F 93% 29.70 in 3.0 miles NW 16.1 mph 20.7 mph 0.00 in Rain Light Rain
4:16 PM 42.8°F 39.2°F 87% 29.70 in 4.0 miles NW 12.7 mph 21.9 mph 0.00 in Rain Light Rain
4:33 PM 42.8°F 39.2°F 87% 29.73 in 2.5 miles NW 12.7 mph 24.2 mph N/A Rain Light Rain
4:53 PM 42.1°F 39.9°F 92% 29.75 in 2.5 miles NW 11.5 mph 17.3 mph 0.01 in Rain Light Rain
5:00 PM 42.8°F 39.2°F 87% 29.75 in 3.0 miles NW 10.4 mph - 0.00 in Rain Light Rain
5:39 PM 42.8°F 39.2°F 87% 29.78 in 6.0 miles NW 6.9 mph - 0.01 in Rain Light Rain
5:53 PM 41.0°F 39.9°F 96% 29.79 in 6.0 miles NNW 5.8 mph - 0.01 in Rain Light Rain
6:53 PM 41.0°F 39.9°F 96% 29.81 in 6.0 miles NW 4.6 mph - 0.00 in   Overcast
7:53 PM 41.0°F 39.9°F 96% 29.84 in 4.0 miles SSE 3.5 mph - 0.00 in   Overcast
8:01 PM 41.0°F 39.2°F 93% 29.84 in 3.0 miles Calm Calm - N/A   Overcast
8:53 PM 39.9°F 39.9°F 100% 29.86 in 4.0 miles Calm Calm - N/A   Overcast
9:12 PM 39.2°F 39.2°F 100% 29.87 in 1.5 miles Calm Calm - N/A   Overcast
9:14 PM 39.2°F 39.2°F 100% 29.87 in 0.8 miles Calm Calm - N/A   Overcast
9:25 PM 39.2°F 39.2°F 100% 29.87 in 0.2 miles Calm Calm - N/A Fog Fog
9:39 PM 39.2°F 39.2°F 100% 29.88 in 0.5 miles Calm Calm - N/A Fog Fog
9:53 PM 39.0°F 39.0°F 100% 29.89 in 1.0 miles Calm Calm - N/A   Overcast
10:03 PM 39.2°F 39.2°F 100% 29.89 in 2.0 miles Calm Calm - N/A   Overcast
10:20 PM 39.2°F 39.2°F 100% 29.89 in 3.0 miles Calm Calm - N/A   Overcast
10:32 PM 39.2°F 39.2°F 100% 29.90 in 4.0 miles Calm Calm - N/A   Overcast
10:53 PM 39.9°F 39.9°F 100% 29.91 in 5.0 miles Calm Calm - N/A   Overcast
11:39 PM 39.2°F 39.2°F 100% 29.92 in 6.0 miles Calm Calm - N/A   Overcast
11:53 PM 39.9°F 39.9°F 100% 29.93 in 5.0 miles Calm Calm - N/A   Overcast
Moon Phase
Dec. 26 Dec. 28 Jan. 04 Jan. 11 Jan. 18
Sunrise:08:07 AM (PST) Moon Rise:03:31 PM (PST)
Sunset:04:31 PM (PST) Moon Set:06:33 AM (PST)

Copyright © 2014 The Weather Underground, Inc.